SL-19 R/B, 23440

Orbit data source: Space-Track

SL-19 R/B, 23440 is space debris in LEO originally from a launch on Mon, 26 Dec 1994 UTC launched from the Tyuratam Missile And Space Complex (TTMTR). Debris objects in space refer to the collection of defunct objects orbiting the Earth. Examples of debris include non-operational satellites, rocket bodies, and fragments generated from explosions, collisions, or faulty payload assembly.

Loading next visibility...
Identifier
23440, 1994-085B
Orbit
LEO
Country
Flag of CISCIS
Related business
Manufacturer
Khrunichev
Mission
Spacecraft
Bus & Motor
BRIZ, Unknown motor
Mass
~1,700 kg wet, ~1,700 kg dry
Launch date (UTC)
1994-12-26 (31 years ago)
Launch vehicle
Unknown
Launch site
Tyuratam Missile And Space Complex (TTMTR)
Object type
Payload
Rocket body
Debris
Shape & HBR
Hex Cyl + 1 Rod, 1.3 m
Radar Cross Section
5.049 m², Large (>1 m²)

Expand to show TLE details & history
Last TLE update: 2 days ago

TLE from 2 days ago
0 SL-19 R/B
1 23440U 94085B   26171.43894844 -.00000036  00000-0  17178-3 0  9997
2 23440  64.8361 323.3084 0181693 341.1769  44.6778 11.27134229295986
Epoch: 2026-06-20T10:32Z
TLE epoch observation values (Epoch: 2026-06-20T10:32:05.145Z)
Latitude
24.60385°
Longitude
-91.00268°
Altitude
1,919.186 km
Speed
6.978 km/s
True Right ascension
22h 22m 41s
True Declination
24° 29' 32"
Sunlit
Object was in daylight at epoch
Visualization orbit readout
Latitude
Unknown
Longitude
Unknown
Altitude
Unknown
Speed
Unknown
Apparent Right ascension
Unknown
Apparent Declination
Unknown
Sunlit
N/A
Visualization observer readout
Local Sidereal Time
23:27:07
Azimuth
Unknown
Elevation
Unknown
Doppler factor
Unknown
Orbital elements
Apogee altitude
2,176.003 km
Perigee altitude
1,870.704 km
Semi-major axis
8,401.49 km
Eccentricity
0.01817
Inclination
64.8361°
RAAN
323.3084°
Arg. of periapsis
341.1769°
True anomaly
46.16557°
Mean anomaly
44.6778°
Eccentric anomaly
45.41928°
Mean motion
2.81844 °/min
Orbital period
127.73 mins
BSTAR
0.00017178
Loading maneuver chart data...
Computing Atmospheric mass density...
Loading historical data...
Loading historical data...
Loading historical data...
Loading historical data...
Loading historical data...
Loading historical data...
Loading historical data...

Documentation

Showing up to 5 results
|